| time (UTC) | temp C | wind direction | speed KPH | gust KPH | rain 1hr cm | rain 24hr cm | rain mn cm | humidity % | barometer mb |
| 20260507223737 | 21 | 270 | 6.4 | 16.1 | 0.00 | 0.00 | 0.00 | 24 | 1011.7 |
| 20260507223237 | 21 | 316 | 9.7 | 22.5 | 0.00 | 0.00 | 0.00 | 24 | 1011.8 |
| 20260507222737 | 20 | 286 | 4.8 | 20.9 | 0.00 | 0.00 | 0.00 | 25 | 1011.7 |
| 20260507222237 | 20 | 312 | 11.3 | 20.9 | 0.00 | 0.00 | 0.00 | 26 | 1011.8 |
| 20260507221737 | 20 | 313 | 8.0 | 17.7 | 0.00 | 0.00 | 0.00 | 27 | 1011.8 |
| 20260507221237 | 20 | 295 | 8.0 | 19.3 | 0.00 | 0.00 | 0.00 | 25 | 1012.0 |
| 20260507220758 | 21 | 320 | 8.0 | 20.9 | 0.00 | 0.00 | 0.00 | 25 | 1012.1 |
| 20260507220237 | 21 | 303 | 8.0 | 20.9 | 0.00 | 0.00 | 0.00 | 25 | 1012.1 |
| 20260507215737 | 20 | 286 | 8.0 | 27.4 | 0.00 | 0.00 | 0.00 | 24 | 1012.2 |
| 20260507215237 | 20 | 324 | 9.7 | 27.4 | 0.00 | 0.00 | 0.00 | 25 | 1012.3 |
| 20260507214737 | 20 | 309 | 9.7 | 20.9 | 0.00 | 0.00 | 0.00 | 25 | 1012.4 |
| 20260507214237 | 21 | 312 | 11.3 | 20.9 | 0.00 | 0.00 | 0.00 | 24 | 1012.4 |
| 20260507213737 | 20 | 305 | 9.7 | 20.9 | 0.00 | 0.00 | 0.00 | 26 | 1012.4 |
| 20260507213237 | 20 | 326 | 11.3 | 25.7 | 0.00 | 0.00 | 0.00 | 26 | 1012.6 |
| 20260507212737 | 20 | 306 | 9.7 | 25.7 | 0.00 | 0.00 | 0.00 | 28 | 1012.6 |
| 20260507212237 | 20 | 329 | 11.3 | 20.9 | 0.00 | 0.00 | 0.00 | 26 | 1012.7 |
| 20260507211737 | 20 | 284 | 8.0 | 25.7 | 0.00 | 0.00 | 0.00 | 27 | 1012.8 |
| 20260507211258 | 20 | 336 | 12.9 | 25.7 | 0.00 | 0.00 | 0.00 | 26 | 1012.8 |
| 20260507210758 | 20 | 312 | 12.9 | 25.7 | 0.00 | 0.00 | 0.00 | 25 | 1012.8 |
| 20260507210237 | 20 | 335 | 11.3 | 25.7 | 0.00 | 0.00 | 0.00 | 26 | 1012.8 |
| 20260507205737 | 20 | 303 | 9.7 | 22.5 | 0.00 | 0.00 | 0.00 | 26 | 1012.9 |
| 20260507205237 | 20 | 301 | 9.7 | 22.5 | 0.00 | 0.00 | 0.00 | 27 | 1012.8 |
| 20260507204737 | 20 | 322 | 9.7 | 17.7 | 0.00 | 0.00 | 0.00 | 26 | 1013.0 |
| 20260507204237 | 20 | 280 | 8.0 | 20.9 | 0.00 | 0.00 | 0.00 | 26 | 1013.0 |
| 20260507203737 | 20 | 334 | 11.3 | 20.9 | 0.00 | 0.00 | 0.00 | 26 | 1013.1 |
| 20260507203237 | 20 | 289 | 11.3 | 29.0 | 0.00 | 0.00 | 0.00 | 27 | 1013.2 |
| 20260507202737 | 20 | 292 | 8.0 | 29.0 | 0.00 | 0.00 | 0.00 | 28 | 1013.2 |
| 20260507202237 | 20 | 288 | 6.4 | 19.3 | 0.00 | 0.00 | 0.00 | 27 | 1013.3 |
| 20260507201737 | 20 | -1 | 6.4 | 19.3 | 0.00 | 0.00 | 0.00 | 27 | 1013.4 |
| 20260507201237 | 20 | 300 | 9.7 | 22.5 | 0.00 | 0.00 | 0.00 | 27 | 1013.5 |
| 20260507200737 | 20 | 271 | 9.7 | 25.7 | 0.00 | 0.00 | 0.00 | 26 | 1013.5 |
| 20260507200237 | 20 | 304 | 11.3 | 25.7 | 0.00 | 0.00 | 0.00 | 27 | 1013.5 |
| 20260507195737 | 20 | 292 | 9.7 | 24.1 | 0.00 | 0.00 | 0.00 | 26 | 1013.5 |
| 20260507195258 | 20 | 296 | 9.7 | 24.1 | 0.00 | 0.00 | 0.00 | 28 | 1013.6 |
| 20260507194737 | 20 | 270 | 12.9 | 24.1 | 0.00 | 0.00 | 0.00 | 26 | 1013.6 |
| 20260507194237 | 20 | 221 | 9.7 | 24.1 | 0.00 | 0.00 | 0.00 | 27 | 1013.6 |
| 20260507193737 | 20 | 297 | 8.0 | 20.9 | 0.00 | 0.00 | 0.00 | 29 | 1013.6 |
| 20260507193237 | 20 | 262 | 9.7 | 24.1 | 0.00 | 0.00 | 0.00 | 29 | 1013.8 |
| 20260507192737 | 20 | 269 | 9.7 | 25.7 | 0.00 | 0.00 | 0.00 | 30 | 1013.9 |
| 20260507192237 | 20 | 288 | 11.3 | 25.7 | 0.00 | 0.00 | 0.00 | 29 | 1013.9 |
| 20260507191737 | 20 | 257 | 8.0 | 20.9 | 0.00 | 0.00 | 0.00 | 29 | 1014.1 |
| 20260507191237 | 19 | 295 | 9.7 | 22.5 | 0.00 | 0.00 | 0.00 | 30 | 1014.0 |
| 20260507190737 | 19 | 300 | 9.7 | 25.7 | 0.00 | 0.00 | 0.00 | 31 | 1014.0 |
| 20260507190237 | 19 | 316 | 11.3 | 25.7 | 0.00 | 0.00 | 0.00 | 30 | 1014.0 |
| 20260507185758 | 19 | 262 | 6.4 | 19.3 | 0.00 | 0.00 | 0.00 | 29 | 1014.1 |
| 20260507185237 | 20 | 245 | 6.4 | 19.3 | 0.00 | 0.00 | 0.00 | 28 | 1014.1 |
| 20260507184737 | 20 | 299 | 6.4 | 19.3 | 0.00 | 0.00 | 0.00 | 31 | 1014.3 |
| 20260507184237 | 20 | 298 | 6.4 | 14.5 | 0.00 | 0.00 | 0.00 | 30 | 1014.1 |
| 20260507183737 | 19 | 302 | 4.8 | 20.9 | 0.00 | 0.00 | 0.00 | 30 | 1014.2 |
| 20260507183258 | 19 | 268 | 4.8 | 17.7 | 0.00 | 0.00 | 0.00 | 28 | 1014.3 |
| 20260507182737 | 19 | 269 | 8.0 | 17.7 | 0.00 | 0.00 | 0.00 | 29 | 1014.4 |
| 20260507182237 | 19 | 274 | 4.8 | 14.5 | 0.00 | 0.00 | 0.00 | 29 | 1014.5 |
| 20260507181737 | 19 | 274 | 4.8 | 17.7 | 0.00 | 0.00 | 0.00 | 29 | 1014.5 |
| 20260507181258 | 19 | 249 | 4.8 | 17.7 | 0.00 | 0.00 | 0.00 | 30 | 1014.5 |
| 20260507180737 | 19 | 271 | 3.2 | 12.9 | 0.00 | 0.00 | 0.00 | 32 | 1014.5 |
| 20260507180237 | 19 | 284 | 4.8 | 14.5 | 0.00 | 0.00 | 0.00 | 30 | 1014.6 |
| 20260507175737 | 18 | 303 | 6.4 | 14.5 | 0.00 | 0.00 | 0.00 | 31 | 1014.6 |
| 20260507175237 | 18 | 292 | 4.8 | 12.9 | 0.00 | 0.00 | 0.00 | 28 | 1014.6 |
| 20260507174737 | 18 | 303 | 4.8 | 14.5 | 0.00 | 0.00 | 0.00 | 32 | 1014.7 |
| 20260507174237 | 18 | 274 | 4.8 | 16.1 | 0.00 | 0.00 | 0.00 | 31 | 1014.8 |
| 20260507173737 | 17 | 300 | 6.4 | 14.5 | 0.00 | 0.00 | 0.00 | 34 | 1014.9 |
| 20260507173237 | 17 | 292 | 6.4 | 17.7 | 0.00 | 0.00 | 0.00 | 32 | 1015.0 |
| 20260507172758 | 17 | 284 | 6.4 | 17.7 | 0.00 | 0.00 | 0.00 | 34 | 1015.0 |
| 20260507172237 | 17 | 258 | 4.8 | 19.3 | 0.00 | 0.00 | 0.00 | 36 | 1015.1 |
| 20260507171737 | 17 | 266 | 4.8 | 14.5 | 0.00 | 0.00 | 0.00 | 34 | 1015.2 |
| 20260507171237 | 17 | 267 | 4.8 | 16.1 | 0.00 | 0.00 | 0.00 | 35 | 1015.3 |
| 20260507170758 | 17 | 248 | 6.4 | 16.1 | 0.00 | 0.00 | 0.00 | 34 | 1015.3 |
| 20260507170237 | 17 | 317 | 4.8 | 14.5 | 0.00 | 0.00 | 0.00 | 34 | 1015.3 |
| 20260507165737 | 17 | 284 | 3.2 | 14.5 | 0.00 | 0.00 | 0.00 | 32 | 1015.4 |
| 20260507165237 | 17 | 249 | 4.8 | 11.3 | 0.00 | 0.00 | 0.00 | 32 | 1015.5 |
| 20260507164758 | 17 | 288 | 3.2 | 11.3 | 0.00 | 0.00 | 0.00 | 31 | 1015.4 |
| 20260507164258 | 17 | 274 | 3.2 | 11.3 | 0.00 | 0.00 | 0.00 | 32 | 1015.4 |
| 20260507163737 | 17 | 285 | 3.2 | 14.5 | 0.00 | 0.00 | 0.00 | 32 | 1015.3 |
| 20260507163237 | 17 | 274 | 4.8 | 14.5 | 0.00 | 0.00 | 0.00 | 34 | 1015.2 |
| 20260507162737 | 16 | 249 | 4.8 | 16.1 | 0.00 | 0.00 | 0.00 | 34 | 1015.2 |
| 20260507162237 | 16 | 260 | 6.4 | 16.1 | 0.00 | 0.00 | 0.00 | 35 | 1015.2 |
| 20260507161737 | 16 | 239 | 6.4 | 14.5 | 0.00 | 0.00 | 0.00 | 35 | 1015.2 |
| 20260507161237 | 16 | 263 | 4.8 | 19.3 | 0.00 | 0.00 | 0.00 | 37 | 1015.4 |
| 20260507160737 | 15 | 240 | 8.0 | 19.3 | 0.00 | 0.00 | 0.00 | 36 | 1015.5 |
| 20260507160237 | 15 | 260 | 4.8 | 16.1 | 0.00 | 0.00 | 0.00 | 39 | 1015.6 |
| 20260507155737 | 15 | 194 | 6.4 | 16.1 | 0.00 | 0.00 | 0.00 | 38 | 1015.7 |
| 20260507155237 | 15 | 281 | 6.4 | 17.7 | 0.00 | 0.00 | 0.00 | 38 | 1015.7 |
| 20260507154737 | 15 | 261 | 6.4 | 17.7 | 0.00 | 0.00 | 0.00 | 37 | 1015.8 |
| 20260507154237 | 14 | 275 | 6.4 | 14.5 | 0.00 | 0.00 | 0.00 | 39 | 1015.8 |
| 20260507153737 | 14 | 242 | 4.8 | 16.1 | 0.00 | 0.00 | 0.00 | 40 | 1015.8 |
| 20260507153237 | 14 | 229 | 6.4 | 16.1 | 0.00 | 0.00 | 0.00 | 38 | 1015.9 |
| 20260507152737 | 13 | 224 | 6.4 | 20.9 | 0.00 | 0.00 | 0.00 | 39 | 1015.8 |
| 20260507152237 | 13 | 269 | 6.4 | 20.9 | 0.00 | 0.00 | 0.00 | 38 | 1015.8 |
| 20260507151737 | 13 | 257 | 6.4 | 14.5 | 0.00 | 0.00 | 0.00 | 40 | 1015.8 |
| 20260507151237 | 13 | 278 | 6.4 | 19.3 | 0.00 | 0.00 | 0.00 | 41 | 1015.8 |
| 20260507150737 | 13 | 253 | 4.8 | 19.3 | 0.00 | 0.00 | 0.00 | 42 | 1015.7 |
| 20260507150237 | 13 | 236 | 6.4 | 17.7 | 0.00 | 0.00 | 0.00 | 41 | 1015.7 |
| 20260507145737 | 12 | 270 | 6.4 | 17.7 | 0.00 | 0.00 | 0.00 | 42 | 1015.7 |
| 20260507145237 | 12 | 265 | 4.8 | 20.9 | 0.00 | 0.00 | 0.00 | 43 | 1015.8 |
| 20260507144737 | 12 | 243 | 6.4 | 22.5 | 0.00 | 0.00 | 0.00 | 43 | 1015.7 |
| 20260507144237 | 12 | 251 | 8.0 | 22.5 | 0.00 | 0.00 | 0.00 | 43 | 1015.8 |
| 20260507143758 | 11 | 250 | 4.8 | 22.5 | 0.00 | 0.00 | 0.00 | 44 | 1015.8 |
| 20260507143258 | 11 | 246 | 4.8 | 16.1 | 0.00 | 0.00 | 0.00 | 45 | 1015.9 |
| 20260507142737 | 11 | 219 | 6.4 | 20.9 | 0.00 | 0.00 | 0.00 | 44 | 1015.8 |
| 20260507142237 | 11 | 244 | 8.0 | 20.9 | 0.00 | 0.00 | 0.00 | 44 | 1015.7 |
| 20260507141737 | 10 | 264 | 6.4 | 19.3 | 0.00 | 0.00 | 0.00 | 44 | 1015.7 |
| 20260507141237 | 10 | 250 | 9.7 | 19.3 | 0.00 | 0.00 | 0.00 | 44 | 1015.7 |
| 20260507140737 | 10 | 245 | 4.8 | 22.5 | 0.00 | 0.00 | 0.00 | 44 | 1015.7 |
| 20260507140237 | 10 | 215 | 8.0 | 22.5 | 0.00 | 0.00 | 0.00 | 44 | 1015.6 |
| 20260507135737 | 10 | 264 | 6.4 | 16.1 | 0.00 | 0.00 | 0.00 | 45 | 1015.7 |
| 20260507135258 | 10 | 283 | 4.8 | 16.1 | 0.00 | 0.00 | 0.00 | 45 | 1015.7 |
| 20260507134737 | 9 | 262 | 6.4 | 16.1 | 0.00 | 0.00 | 0.00 | 47 | 1015.6 |
| 20260507134237 | 9 | 222 | 6.4 | 14.5 | 0.00 | 0.00 | 0.00 | 47 | 1015.5 |
| 20260507133737 | 8 | 249 | 6.4 | 16.1 | 0.00 | 0.00 | 0.00 | 48 | 1015.5 |
| 20260507133237 | 8 | 250 | 4.8 | 16.1 | 0.00 | 0.00 | 0.00 | 47 | 1015.5 |
| 20260507132737 | 8 | 244 | 6.4 | 14.5 | 0.00 | 0.00 | 0.00 | 48 | 1015.5 |
| 20260507132237 | 8 | 266 | 4.8 | 12.9 | 0.00 | 0.00 | 0.00 | 48 | 1015.4 |
| 20260507131737 | 7 | 246 | 4.8 | 11.3 | 0.00 | 0.00 | 0.00 | 49 | 1015.4 |
| 20260507131237 | 7 | 268 | 4.8 | 12.9 | 0.00 | 0.00 | 0.00 | 49 | 1015.4 |
| 20260507130737 | 7 | 222 | 6.4 | 17.7 | 0.00 | 0.00 | 0.00 | 50 | 1015.3 |
| 20260507130237 | 7 | 275 | 3.2 | 12.9 | 0.00 | 0.00 | 0.00 | 51 | 1015.2 |
| 20260507125737 | 6 | 227 | 4.8 | 12.9 | 0.00 | 0.00 | 0.00 | 51 | 1015.1 |
| 20260507125237 | 6 | 239 | 4.8 | 12.9 | 0.00 | 0.00 | 0.00 | 51 | 1015.1 |
| 20260507124737 | 6 | 217 | 4.8 | 12.9 | 0.00 | 0.00 | 0.00 | 51 | 1015.1 |
| 20260507124237 | 6 | 201 | 3.2 | 9.7 | 0.00 | 0.00 | 0.00 | 51 | 1015.1 |
| 20260507123758 | 5 | 224 | 4.8 | 11.3 | 0.00 | 0.00 | 0.00 | 52 | 1015.1 |
| 20260507123237 | 5 | 243 | 4.8 | 11.3 | 0.00 | 0.00 | 0.00 | 52 | 1015.0 |
| 20260507122737 | 5 | 280 | 3.2 | 11.3 | 0.00 | 0.00 | 0.00 | 53 | 1014.9 |
| 20260507122237 | 5 | 240 | 4.8 | 11.3 | 0.00 | 0.00 | 0.00 | 53 | 1014.9 |
| 20260507121737 | 5 | 219 | 4.8 | 9.7 | 0.00 | 0.00 | 0.00 | 54 | 1014.8 |
| 20260507121237 | 4 | 247 | 1.6 | 8.0 | 0.00 | 0.00 | 0.00 | 55 | 1014.9 |
| 20260507120737 | 4 | 231 | 4.8 | 11.3 | 0.00 | 0.00 | 0.00 | 55 | 1014.9 |
| 20260507120237 | 4 | 236 | 3.2 | 11.3 | 0.00 | 0.00 | 0.00 | 55 | 1014.9 |
| 20260507115737 | 4 | 234 | 3.2 | 8.0 | 0.00 | 0.00 | 0.00 | 55 | 1014.9 |
| 20260507115237 | 4 | 250 | 3.2 | 8.0 | 0.00 | 0.00 | 0.00 | 55 | 1014.7 |
| 20260507114737 | 4 | 240 | 1.6 | 9.7 | 0.00 | 0.00 | 0.00 | 55 | 1014.8 |
| 20260507114237 | 4 | 223 | 3.2 | 9.7 | 0.00 | 0.00 | 0.00 | 56 | 1014.8 |
| 20260507113737 | 4 | 220 | 4.8 | 9.7 | 0.00 | 0.00 | 0.00 | 56 | 1014.7 |
| 20260507113237 | 4 | 248 | 3.2 | 9.7 | 0.00 | 0.00 | 0.00 | 55 | 1014.7 |
| 20260507112737 | 4 | 255 | 3.2 | 9.7 | 0.00 | 0.00 | 0.00 | 55 | 1014.6 |
| 20260507112237 | 4 | 263 | 3.2 | 9.7 | 0.00 | 0.00 | 0.00 | 56 | 1014.7 |
| 20260507111737 | 4 | 256 | 4.8 | 9.7 | 0.00 | 0.00 | 0.00 | 55 | 1014.6 |
| 20260507111237 | 4 | 271 | 3.2 | 12.9 | 0.00 | 0.00 | 0.00 | 55 | 1014.6 |
| 20260507110737 | 3 | 236 | 4.8 | 12.9 | 0.00 | 0.00 | 0.00 | 56 | 1014.5 |
| 20260507110237 | 3 | 210 | 4.8 | 14.5 | 0.00 | 0.00 | 0.00 | 56 | 1014.7 |
| 20260507105737 | 3 | 218 | 3.2 | 14.5 | 0.00 | 0.00 | 0.00 | 57 | 1014.7 |
| 20260507105237 | 3 | 222 | 4.8 | 12.9 | 0.00 | 0.00 | 0.00 | 57 | 1014.8 |
| 20260507104737 | 3 | 238 | 4.8 | 11.3 | 0.00 | 0.00 | 0.00 | 57 | 1014.8 |
| 20260507104258 | 3 | 247 | 1.6 | 11.3 | 0.00 | 0.00 | 0.00 | 57 | 1014.9 |
| 20260507103758 | 3 | 240 | 3.2 | 12.9 | 0.00 | 0.00 | 0.00 | 57 | 1014.9 |
| 20260507103237 | 3 | 243 | 4.8 | 12.9 | 0.00 | 0.00 | 0.00 | 57 | 1014.9 |
| 20260507102737 | 3 | 264 | 3.2 | 9.7 | 0.00 | 0.00 | 0.00 | 57 | 1014.9 |
| 20260507102237 | 3 | 254 | 3.2 | 11.3 | 0.00 | 0.00 | 0.00 | 57 | 1015.0 |
| 20260507101758 | 3 | 237 | 3.2 | 11.3 | 0.00 | 0.00 | 0.00 | 58 | 1015.1 |
| 20260507101258 | 3 | 247 | 3.2 | 9.7 | 0.00 | 0.00 | 0.00 | 58 | 1015.1 |
| 20260507100737 | 3 | 259 | 1.6 | 9.7 | 0.00 | 0.00 | 0.00 | 58 | 1015.2 |
| 20260507100237 | 3 | 255 | 3.2 | 9.7 | 0.00 | 0.00 | 0.00 | 58 | 1015.3 |
| 20260507095758 | 3 | 240 | 3.2 | 9.7 | 0.00 | 0.00 | 0.00 | 58 | 1015.2 |
| 20260507095237 | 3 | 208 | 1.6 | 9.7 | 0.00 | 0.00 | 0.00 | 58 | 1015.2 |
| 20260507094737 | 3 | 267 | 3.2 | 9.7 | 0.00 | 0.00 | 0.00 | 59 | 1015.2 |
| 20260507094237 | 3 | 255 | 1.6 | 12.9 | 0.00 | 0.00 | 0.00 | 60 | 1015.2 |
| 20260507093737 | 3 | 255 | 4.8 | 12.9 | 0.00 | 0.00 | 0.00 | 61 | 1015.2 |
| 20260507093237 | 2 | 230 | 4.8 | 11.3 | 0.00 | 0.00 | 0.00 | 62 | 1015.2 |
| 20260507092737 | 2 | 198 | 4.8 | 9.7 | 0.00 | 0.00 | 0.00 | 64 | 1015.2 |
| 20260507092237 | 2 | 189 | 3.2 | 9.7 | 0.00 | 0.00 | 0.00 | 65 | 1015.3 |
| 20260507091737 | 2 | 235 | 1.6 | 8.0 | 0.00 | 0.00 | 0.00 | 66 | 1015.3 |
| 20260507091237 | 2 | 220 | 0.0 | 4.8 | 0.00 | 0.00 | 0.00 | 67 | 1015.3 |
| 20260507090737 | 2 | 201 | 1.6 | 6.4 | 0.00 | 0.00 | 0.00 | 67 | 1015.4 |
| 20260507090237 | 2 | 167 | 1.6 | 6.4 | 0.00 | 0.00 | 0.00 | 67 | 1015.3 |
| 20260507085737 | 2 | 177 | 1.6 | 4.8 | 0.00 | 0.00 | 0.00 | 68 | 1015.3 |
| 20260507085237 | 2 | 162 | 1.6 | 4.8 | 0.00 | 0.00 | 0.00 | 68 | 1015.3 |
| 20260507084758 | 2 | 190 | 1.6 | 6.4 | 0.00 | 0.00 | 0.00 | 69 | 1015.3 |
| 20260507084237 | 2 | 171 | 1.6 | 6.4 | 0.00 | 0.00 | 0.00 | 70 | 1015.3 |
| 20260507083737 | 2 | 226 | 1.6 | 8.0 | 0.00 | 0.00 | 0.00 | 71 | 1015.4 |
| 20260507083237 | 2 | 211 | 1.6 | 8.0 | 0.00 | 0.00 | 0.00 | 72 | 1015.5 |
| 20260507082737 | 1 | 182 | 1.6 | 9.7 | 0.00 | 0.00 | 0.00 | 73 | 1015.6 |
| 20260507082237 | 1 | 248 | 1.6 | 9.7 | 0.00 | 0.00 | 0.00 | 74 | 1015.7 |
| 20260507081737 | 1 | 197 | 1.6 | 9.7 | 0.00 | 0.00 | 0.00 | 75 | 1015.8 |
| 20260507081237 | 1 | 176 | 1.6 | 9.7 | 0.00 | 0.00 | 0.00 | 76 | 1015.8 |
| 20260507080737 | 1 | 230 | 3.2 | 9.7 | 0.00 | 0.00 | 0.00 | 77 | 1015.8 |
| 20260507080237 | 1 | 217 | 3.2 | 8.0 | 0.00 | 0.00 | 0.00 | 77 | 1015.9 |
| 20260507075737 | 1 | 266 | 1.6 | 8.0 | 0.00 | 0.00 | 0.00 | 77 | 1016.0 |
| 20260507075258 | 1 | 241 | 1.6 | 8.0 | 0.00 | 0.00 | 0.00 | 77 | 1016.1 |
| 20260507074737 | 1 | 264 | 1.6 | 8.0 | 0.00 | 0.00 | 0.00 | 77 | 1015.9 |
| 20260507074237 | 1 | 215 | 3.2 | 9.7 | 0.00 | 0.00 | 0.00 | 77 | 1016.1 |
| 20260507073737 | 1 | 229 | 3.2 | 9.7 | 0.00 | 0.00 | 0.00 | 78 | 1016.2 |
| 20260507073237 | 1 | 249 | 3.2 | 8.0 | 0.00 | 0.00 | 0.00 | 78 | 1016.3 |
| 20260507072737 | 1 | 257 | 3.2 | 9.7 | 0.00 | 0.00 | 0.00 | 79 | 1016.3 |
| 20260507072258 | 1 | 267 | 1.6 | 6.4 | 0.00 | 0.00 | 0.00 | 79 | 1016.3 |
| 20260507071737 | 1 | 238 | 1.6 | 6.4 | 0.00 | 0.00 | 0.00 | 80 | 1016.4 |
| 20260507071237 | 1 | 204 | 1.6 | 8.0 | 0.00 | 0.00 | 0.00 | 80 | 1016.3 |
| 20260507070737 | 1 | 216 | 1.6 | 8.0 | 0.00 | 0.00 | 0.00 | 81 | 1016.4 |
| 20260507070237 | 1 | 192 | 1.6 | 9.7 | 0.00 | 0.00 | 0.00 | 81 | 1016.4 |
| 20260507065758 | 1 | 223 | 3.2 | 9.7 | 0.00 | 0.00 | 0.00 | 82 | 1016.4 |
| 20260507065237 | 1 | 239 | 3.2 | 8.0 | 0.00 | 0.00 | 0.00 | 83 | 1016.4 |
| 20260507064737 | 1 | 213 | 3.2 | 8.0 | 0.00 | 0.00 | 0.00 | 83 | 1016.4 |
| 20260507064237 | 0 | 218 | 1.6 | 4.8 | 0.00 | 0.00 | 0.00 | 84 | 1016.5 |
| 20260507063737 | 0 | 109 | 1.6 | 4.8 | 0.00 | 0.00 | 0.00 | 84 | 1016.5 |
| 20260507063237 | 0 | 217 | 1.6 | 6.4 | 0.00 | 0.00 | 0.00 | 84 | 1016.5 |
| 20260507062737 | 0 | 200 | 1.6 | 6.4 | 0.00 | 0.00 | 0.00 | 84 | 1016.7 |
| 20260507062237 | 0 | 250 | 1.6 | 6.4 | 0.00 | 0.00 | 0.00 | 84 | 1016.7 |
| 20260507061737 | 0 | 186 | 1.6 | 6.4 | 0.00 | 0.00 | 0.00 | 84 | 1016.7 |
| 20260507061237 | 0 | 161 | 1.6 | 8.0 | 0.00 | 0.00 | 0.00 | 84 | 1016.7 |
| 20260507060737 | 0 | 244 | 1.6 | 8.0 | 0.00 | 0.00 | 0.00 | 85 | 1016.7 |
| 20260507060237 | 0 | 210 | 1.6 | 8.0 | 0.00 | 0.00 | 0.00 | 85 | 1016.7 |
| 20260507055737 | 0 | 157 | 3.2 | 8.0 | 0.00 | 1.19 | 1.19 | 85 | 1016.6 |
| 20260507055237 | 0 | 182 | 1.6 | 8.0 | 0.00 | 1.19 | 1.19 | 85 | 1016.7 |
| 20260507054737 | 0 | 184 | 0.0 | 6.4 | 0.00 | 1.19 | 1.19 | 85 | 1016.8 |
| 20260507054237 | 0 | 188 | 1.6 | 8.0 | 0.00 | 1.19 | 1.19 | 85 | 1016.8 |
| 20260507053737 | 0 | 198 | 1.6 | 8.0 | 0.00 | 1.19 | 1.19 | 85 | 1017.0 |
| 20260507053237 | 0 | 165 | 3.2 | 8.0 | 0.00 | 1.19 | 1.19 | 85 | 1016.9 |
| 20260507052758 | 0 | 173 | 1.6 | 6.4 | 0.00 | 1.19 | 1.19 | 84 | 1017.0 |
| 20260507052258 | 0 | 174 | 1.6 | 6.4 | 0.00 | 1.19 | 1.19 | 84 | 1017.0 |
| 20260507051737 | 0 | 178 | 1.6 | 8.0 | 0.00 | 1.19 | 1.19 | 84 | 1017.1 |
| 20260507051237 | 0 | 167 | 1.6 | 9.7 | 0.00 | 1.19 | 1.19 | 84 | 1017.2 |
| 20260507050737 | 0 | 168 | 1.6 | 9.7 | 0.00 | 1.19 | 1.19 | 84 | 1017.2 |
| 20260507050258 | 0 | 185 | 1.6 | 9.7 | 0.00 | 1.19 | 1.19 | 83 | 1017.2 |
| 20260507045737 | 0 | 174 | 1.6 | 8.0 | 0.00 | 1.19 | 1.19 | 83 | 1017.2 |
| 20260507045258 | 0 | 176 | 1.6 | 11.3 | 0.00 | 1.19 | 1.19 | 83 | 1017.3 |
| 20260507044737 | 0 | 152 | 1.6 | 11.3 | 0.00 | 1.19 | 1.19 | 83 | 1017.4 |
| 20260507044258 | 0 | 203 | 3.2 | 9.7 | 0.00 | 1.19 | 1.19 | 83 | 1017.3 |
| 20260507043737 | 0 | 164 | 1.6 | 12.9 | 0.00 | 1.19 | 1.19 | 83 | 1017.4 |
| 20260507043237 | 0 | 177 | 4.8 | 12.9 | 0.00 | 1.19 | 1.19 | 83 | 1017.4 |
| 20260507042737 | 1 | 172 | 3.2 | 9.7 | 0.00 | 1.19 | 1.19 | 82 | 1017.4 |
| 20260507042258 | 1 | 176 | 1.6 | 9.7 | 0.00 | 1.19 | 1.19 | 82 | 1017.4 |
| 20260507041737 | 1 | 180 | 1.6 | 9.7 | 0.00 | 1.19 | 1.19 | 82 | 1017.6 |
| 20260507041237 | 1 | 197 | 1.6 | 8.0 | 0.00 | 1.19 | 1.19 | 82 | 1017.6 |
| 20260507040737 | 1 | 176 | 3.2 | 8.0 | 0.00 | 1.19 | 1.19 | 81 | 1017.6 |
| 20260507040258 | 1 | 211 | 1.6 | 8.0 | 0.00 | 1.19 | 1.19 | 81 | 1017.6 |
| 20260507035737 | 1 | 203 | 3.2 | 9.7 | 0.00 | 1.19 | 1.19 | 81 | 1017.5 |
| 20260507035237 | 1 | 168 | 3.2 | 9.7 | 0.00 | 1.19 | 1.19 | 81 | 1017.5 |
| 20260507034737 | 1 | 196 | 4.8 | 9.7 | 0.00 | 1.19 | 1.19 | 81 | 1017.4 |
| 20260507034237 | 1 | 201 | 1.6 | 9.7 | 0.00 | 1.19 | 1.19 | 81 | 1017.4 |
| 20260507033758 | 1 | 177 | 1.6 | 9.7 | 0.00 | 1.19 | 1.19 | 80 | 1017.4 |
| 20260507033237 | 1 | 196 | 4.8 | 9.7 | 0.00 | 1.19 | 1.19 | 80 | 1017.5 |
| 20260507032737 | 1 | 178 | 1.6 | 9.7 | 0.00 | 1.19 | 1.19 | 80 | 1017.5 |
| 20260507032237 | 1 | 174 | 1.6 | 9.7 | 0.00 | 1.19 | 1.19 | 80 | 1017.5 |
| 20260507031758 | 1 | 190 | 3.2 | 11.3 | 0.00 | 1.19 | 1.19 | 80 | 1017.6 |
| 20260507031237 | 1 | 153 | 3.2 | 11.3 | 0.00 | 1.19 | 1.19 | 79 | 1017.5 |
| 20260507030737 | 1 | 176 | 1.6 | 9.7 | 0.00 | 1.19 | 1.19 | 79 | 1017.5 |
| 20260507030237 | 1 | 180 | 3.2 | 9.7 | 0.00 | 1.19 | 1.19 | 79 | 1017.4 |
| 20260507025737 | 1 | 169 | 4.8 | 9.7 | 0.00 | 1.19 | 1.19 | 79 | 1017.3 |
| 20260507025237 | 1 | 177 | 4.8 | 8.0 | 0.00 | 1.19 | 1.19 | 79 | 1017.4 |
| 20260507024758 | 1 | 185 | 3.2 | 9.7 | 0.00 | 1.19 | 1.19 | 79 | 1017.4 |
| 20260507024237 | 1 | 172 | 3.2 | 9.7 | 0.00 | 1.19 | 1.19 | 78 | 1017.4 |
| 20260507023738 | 2 | 181 | 3.2 | 8.0 | 0.00 | 1.19 | 1.19 | 78 | 1017.3 |
| 20260507023237 | 2 | 179 | 3.2 | 8.0 | 0.00 | 1.19 | 1.19 | 77 | 1017.4 |
| 20260507022737 | 2 | 175 | 1.6 | 11.3 | 0.00 | 1.19 | 1.19 | 77 | 1017.4 |
| 20260507022258 | 2 | 166 | 3.2 | 11.3 | 0.00 | 1.19 | 1.19 | 76 | 1017.3 |
| 20260507021737 | 2 | 182 | 3.2 | 11.3 | 0.00 | 1.19 | 1.19 | 75 | 1017.3 |
| 20260507021237 | 2 | 184 | 1.6 | 9.7 | 0.00 | 1.19 | 1.19 | 74 | 1017.2 |
| 20260507020737 | 2 | 168 | 1.6 | 8.0 | 0.00 | 1.19 | 1.19 | 74 | 1017.2 |
| 20260507020237 | 2 | 169 | 1.6 | 8.0 | 0.00 | 1.19 | 1.19 | 73 | 1017.2 |
| 20260507015758 | 3 | 189 | 1.6 | 8.0 | 0.00 | 1.19 | 1.19 | 71 | 1017.3 |
| 20260507015237 | 3 | 164 | 3.2 | 9.7 | 0.00 | 1.19 | 1.19 | 70 | 1017.3 |
| 20260507014738 | 3 | 188 | 3.2 | 11.3 | 0.00 | 1.19 | 1.19 | 69 | 1017.4 |
| 20260507014237 | 3 | 171 | 4.8 | 11.3 | 0.00 | 1.19 | 1.19 | 68 | 1017.4 |
| 20260507013737 | 3 | 206 | 1.6 | 6.4 | 0.00 | 1.19 | 1.19 | 68 | 1017.5 |
| 20260507013237 | 4 | 173 | 1.6 | 9.7 | 0.00 | 1.19 | 1.19 | 66 | 1017.4 |
| 20260507012737 | 4 | 178 | 3.2 | 9.7 | 0.00 | 1.19 | 1.19 | 66 | 1017.4 |
| 20260507012237 | 4 | 186 | 1.6 | 8.0 | 0.00 | 1.19 | 1.19 | 65 | 1017.4 |
| 20260507011737 | 4 | 147 | 1.6 | 8.0 | 0.00 | 1.19 | 1.19 | 65 | 1017.4 |
| 20260507011237 | 4 | 201 | 0.0 | 8.0 | 0.00 | 1.19 | 1.19 | 64 | 1017.5 |
| 20260507010737 | 5 | 169 | 3.2 | 8.0 | 0.00 | 1.19 | 1.19 | 64 | 1017.5 |
| 20260507010237 | 5 | 205 | 1.6 | 8.0 | 0.00 | 1.19 | 1.19 | 63 | 1017.5 |
| 20260507005737 | 5 | 239 | 1.6 | 8.0 | 0.00 | 1.19 | 1.19 | 64 | 1017.6 |
| 20260507005237 | 5 | 176 | 1.6 | 9.7 | 0.00 | 1.19 | 1.19 | 64 | 1017.6 |
| 20260507004737 | 5 | 191 | 1.6 | 9.7 | 0.00 | 1.19 | 1.19 | 66 | 1017.6 |
| 20260507004237 | 5 | 210 | 1.6 | 8.0 | 0.00 | 1.19 | 1.19 | 66 | 1017.7 |
| 20260507003737 | 5 | 241 | 3.2 | 8.0 | 0.00 | 1.19 | 1.19 | 66 | 1017.7 |
| 20260507003237 | 5 | 210 | 1.6 | 6.4 | 0.00 | 1.19 | 1.19 | 66 | 1017.7 |
| 20260507002737 | 5 | 171 | 1.6 | 8.0 | 0.00 | 1.19 | 1.19 | 67 | 1017.9 |
| 20260507002237 | 5 | 156 | 1.6 | 8.0 | 0.00 | 1.19 | 1.19 | 67 | 1017.9 |
| 20260507001758 | 5 | 222 | 1.6 | 6.4 | 0.00 | 1.19 | 1.19 | 69 | 1017.8 |
| 20260507001237 | 4 | 151 | 1.6 | 9.7 | 0.00 | 1.19 | 1.19 | 66 | 1017.9 |
| 20260507000737 | 4 | 167 | 3.2 | 9.7 | 0.00 | 1.19 | 1.19 | 67 | 1017.9 |
| 20260507000237 | 4 | 193 | 3.2 | 6.4 | 0.00 | 1.19 | 1.19 | 66 | 1017.8 |
| 20260506235737 | 4 | 211 | 1.6 | 8.0 | 0.00 | 1.19 | 1.19 | 64 | 1017.8 |
| 20260506235237 | 5 | 251 | 3.2 | 8.0 | 0.00 | 1.19 | 1.19 | 65 | 1017.8 |
| 20260506234737 | 5 | 149 | 1.6 | 8.0 | 0.00 | 1.19 | 1.19 | 65 | 1017.8 |
| 20260506234258 | 5 | 162 | 3.2 | 8.0 | 0.00 | 1.19 | 1.19 | 65 | 1017.9 |
| 20260506233737 | 5 | 184 | 3.2 | 9.7 | 0.00 | 1.19 | 1.19 | 66 | 1018.0 |
| 20260506233237 | 5 | 237 | 3.2 | 9.7 | 0.00 | 1.19 | 1.19 | 68 | 1018.0 |
| 20260506232737 | 5 | 207 | 3.2 | 9.7 | 0.00 | 1.19 | 1.19 | 68 | 1018.1 |
| 20260506232237 | 5 | 269 | 1.6 | 8.0 | 0.00 | 1.19 | 1.19 | 71 | 1018.0 |
| 20260506231737 | 4 | 246 | 1.6 | 8.0 | 0.00 | 1.19 | 1.19 | 73 | 1018.0 |
| 20260506231237 | 4 | 244 | 1.6 | 6.4 | 0.00 | 1.19 | 1.19 | 74 | 1018.0 |
| 20260506230758 | 3 | 268 | 1.6 | 6.4 | 0.00 | 1.19 | 1.19 | 74 | 1018.0 |
| 20260506230237 | 3 | 188 | 0.0 | 4.8 | 0.00 | 1.19 | 1.19 | 74 | 1018.0 |
| 20260506225737 | 3 | 249 | 1.6 | 4.8 | 0.03 | 1.19 | 1.19 | 73 | 1018.0 |
| 20260506225237 | 3 | 246 | 1.6 | 6.4 | 0.03 | 1.19 | 1.19 | 72 | 1018.0 |
| 20260506224737 | 3 | 224 | 3.2 | 6.4 | 0.03 | 1.19 | 1.19 | 71 | 1018.1 |
| 20260506224237 | 4 | 269 | 1.6 | 9.7 | 0.03 | 1.19 | 1.19 | 72 | 1018.2 |